Regional Weather Roundup
Issued by NWS

Home | Current Version | Previous Version | Graphics & Text | Print | Product List | Glossary On
Versions: 1 2 3 4 5 6 7 8 9 10 11 12 13 14 15 16 17 18 19 20 21 22 23 24 25 26 27 28 29 30 31 32 33 34 35 36 37 38 39 40 41 42 43 44 45 46 47 48 49 50
000
ASUS43 KLSX 281907
RWRMO

WEATHER SUMMARY FOR MISSOURI
NATIONAL WEATHER SERVICE SPRINGFIELD MO
100 PM CST FRI NOV 28 2014

NOTE: "FAIR" INDICATES FEW OR NO CLOUDS BELOW 12,000 FEET WITH NO
       SIGNIFICANT WEATHER AND/OR OBSTRUCTIONS TO VISIBILITY.
       CURRENT SKY AND/OR WEATHER CONDITIONS ARE NOT AVAILABLE FOR
       CHILLICOTHE AND FARMINGTON.

MOZ001>031-035>038-043-044-053-054-282000-
...NORTHERN AND WESTERN MISSOURI...

CITY           SKY/WX    TMP DP  RH WIND       PRES   REMARKS
KANSAS CTY INT PTSUNNY   54  32  43 SW17      29.86F
KANSAS C DTWN  MOSUNNY   57  31  37 SW14      29.86F
LEE`S SUMMIT   SUNNY     56  31  38 SW17G25   29.87F
ST JOSEPH      MOSUNNY   54  31  41 S14       29.84F
CHILLICOTHE      N/A     51  33  50 S7G18     29.86F
KIRKSVILLE     SUNNY     48  32  53 SW15      29.89F

$$
MOZ066>068-077>081-088>096-101>105-282000-
...SOUTHWEST MISSOURI...

CITY           SKY/WX    TMP DP  RH WIND       PRES   REMARKS
SPRINGFIELD    SUNNY     61  33  35 S25G33    29.96F
JOPLIN         SUNNY     61  34  36 S23G32    29.95F

$$
MOZ032>034-039>042-045>050-055>058-069>072-282000-
...CENTRAL MISSOURI...

CITY           SKY/WX    TMP DP  RH WIND       PRES   REMARKS
COLUMBIA       SUNNY     55  33  43 S13       29.93F
JEFFERSON CITY SUNNY     56  32  40 S9        29.95F
ROLLA          SUNNY     53  33  46 S18       29.96F
SEDALIA        SUNNY     57  33  40 SW16      29.91F
WHITEMAN AFB   SUNNY     57  33  39 SW18      29.89F
WARRENSBURG    SUNNY     55  32  41 S15       29.89F
OSAGE BEACH    SUNNY     61  34  36 SW13G24   29.95F

$$
MOZ051-052-059>065-282000-
...EAST CENTRAL MISSOURI...

CITY           SKY/WX    TMP DP  RH WIND       PRES   REMARKS
ST LOUIS INTL  MOSUNNY   50  32  50 S14       30.02F
SPIRIT OF STL  SUNNY     51  32  48 S10G18    30.00F
ST CHARLES     SUNNY     48  36  63 S12       30.00F

$$
MOZ072>076-082>087-097>100-106>115-282000-
...SOUTH CENTRAL AND SOUTHEAST MISSOURI...

CITY           SKY/WX    TMP DP  RH WIND       PRES   REMARKS
CAPE GIRARDEAU SUNNY     45  34  65 S15G25    30.18F
FARMINGTON     SUNNY     46  32  57 SE16      30.08F
POPLAR BLUFF   SUNNY     48  30  49 S16G25    30.16F
WEST PLAINS    SUNNY     51  31  46 S16       30.08F

$$



USA.gov is the U.S. government's official web portal to all federal, state and local government web resources and services.